{"data":{"norad_id":62185,"intl_designator":"2024-226A","name":"2024-226A","alt_names":[],"object_type":"PAYLOAD","status":"ACTIVE","operator":null,"country":"PRC","launch_date":"2024-11-30","launch_site_code":"WSC","launch_vehicle":null,"mission":null,"orbit_class":"UNKNOWN","rcs_meters":null,"size_class":null,"mass_kg":null,"dimensions":null,"purposes":[],"wikipedia_slug":null,"has_3d_model":false,"image_url":null,"decayed_at":null,"tle_current":{"epoch":"2026-09-22T23:59:39.856704Z","epoch_age_seconds":94056,"freshness":"FRESH","line1":"1 62185U 24226A   26265.99976686 -.00000112  00000+0  31486-4 0  9999","line2":"2 62185  50.0042 254.4363 0056117  96.2087 264.5195 13.60155793 90027","mean_motion":13.60155793,"eccentricity":0.0056117,"inclination_deg":50.0042,"raan_deg":254.4363,"arg_perigee_deg":96.2087,"mean_anomaly_deg":264.5195,"bstar":3.1486e-5,"rev_number":9002,"period_min":105.87022511766,"perigee_km":993.52493173681,"apogee_km":1076.7269470106,"semimajor_km":7413.2629393737,"source":"CELESTRAK","updated_at":"2026-09-23T09:00:21.292379Z"}}}